Location: Sungai Apap
(2.6167°N, 113.3833°E)
Time: 15:15:16
(UTC+00:00)

DELTA-4 R/B - Pass Details

Date: 25 May 2024
Orbit: 522 x 34405 km, 13.9° (Epoch: 11 June)

Event Time Altitude Azimuth Distance (km) Brightness Sun altitude
Exits shadow 21:46:36 - 252° (WSW) 6,095 6.9 -7.6°
Reaches altitude 10° 21:48:03 10° 252° (WSW) 5,455 6.7 -7.3°
Maximum altitude 21:58:30 69° 169° (S) 887 3.3 -4.9°
Drops below altitude 10° 22:01:54 10° 85° (E) 1,853 6.6 -4.1°
Sets 22:03:27 0° 81° (E) 2,632 7.9 -3.7°
